Location: Newark
(48.6461°N, 4.3644°W)
Time: 20:45:26
(UTC+00:00)

deb Explorer IX - Pass Details

Date: 01 February 2020
Orbit: 549 x 1099 km, 38.8° (Epoch: 25 February)

Event Time Altitude Azimuth Distance (km) Brightness Sun altitude
Rises 20:16:47 0° 239° (WSW) 3,451 ? -30.1°
Reaches altitude 10° 20:19:27 10° 230° (SW) 2,600 ? -30.5°
Enters shadow 20:23:32 30° 194° (SSW) 1,672 ? -31.2°
